Weather History for KONZ - April, 2014

Change the Weather History Date:

Friday, April 4, 2014

  Actual Average (KDTW) Record (KDTW)
Temperature  
Mean Temperature 42 °F 45 °F  
Max Temperature 50 °F 54 °F 74 °F (1921)
Min Temperature 35 °F 35 °F 9 °F (1874)
Degree Days  
Heating Degree Days 22 20  
Month to date heating degree days 83  
Since 1 July heating degree days 5498  
Cooling Degree Days 0 0  
Month to date cooling degree days 0  
Year to date cooling degree days 0  
Moisture  
Dew Point 37 °F    
Average Humidity 89    
Maximum Humidity 93    
Minimum Humidity 75    
Precipitation  
Precipitation 0.12 in 0.09 in 1.06 in (2003)
Month to date precipitation 0.36  
Year to date precipitation 6.62  
Snow  
Snow 0.00 in 0.10 in 2.70 in (1920)
Month to date snowfall 0.5  
Since 1 July snowfall 41.3  
Snow Depth -    
Sea Level Pressure  
Sea Level Pressure 29.60 in    
Wind  
Wind Speed 10 mph (South)    
Max Wind Speed 29 mph    
Max Gust Speed 38 mph    
Visibility 5 miles    
Events Fog , Rain    
T = Trace of Precipitation, MM = Missing Value Source: NWS Daily Summary

Daily Weather History Graph

Daily Weather History Graph

Search for Another Location

Airport or City:

Trip Planner

Search our weather history database for the weather conditions in past years. The results will help you decide how hot, cold, wet, or windy it might be!

Date:

Astronomy

Apr. 04, 2014 Rise Set
Actual Time 7:10 AM EDT 8:01 PM EDT
Civil Twilight 6:41 AM EDT 8:30 PM EDT
Nautical Twilight 6:08 AM EDT 9:03 PM EDT
Astronomical Twilight 5:33 AM EDT 9:39 PM EDT
Moon 10:22 AM EDT (4/4) 12:22 AM EDT (4/4)
Length of Visible Light 13h 48m
Length of Day
12h 51m
Waxing Crescent, 25% of the Moon is Illuminated
Apr 4
Waxing Crescent
Apr 7
First Quarter
Apr 15
Full
Apr 22
Last Quarter
Apr 29
New

Hourly Weather History & Observations

Time (EDT) Temp. Windchill Dew Point Humidity Pressure Visibility Wind Dir Wind Speed Gust Speed Precip Events Conditions
12:14 AM 37.4 °F 29.8 °F 33.8 °F 87% 29.81 in 10.0 mi ENE 11.5 mph 19.6 mph N/A   Overcast
12:35 AM 37.4 °F 30.3 °F 33.8 °F 87% 29.79 in 10.0 mi ENE 10.4 mph 17.3 mph N/A   Overcast
12:54 AM 37.4 °F 30.3 °F 33.8 °F 87% 29.77 in 10.0 mi ENE 10.4 mph 17.3 mph N/A   Overcast
1:14 AM 37.4 °F 29.8 °F 33.8 °F 87% 29.76 in 10.0 mi ENE 11.5 mph - N/A   Overcast
1:34 AM 37.4 °F 29.8 °F 33.8 °F 87% 29.79 in 10.0 mi ENE 11.5 mph - N/A   Overcast
1:54 AM 35.6 °F 27.5 °F 32.0 °F 87% 29.78 in 10.0 mi East 11.5 mph - N/A   Overcast
2:14 AM 35.6 °F 27.5 °F 32.0 °F 87% 29.75 in 10.0 mi ENE 11.5 mph 16.1 mph N/A   Overcast
2:34 AM 35.6 °F 28.0 °F 33.8 °F 93% 29.74 in 7.0 mi ENE 10.4 mph 17.3 mph N/A   Overcast
2:54 AM 35.6 °F 28.6 °F 33.8 °F 93% 29.73 in 4.0 mi East 9.2 mph - N/A   Overcast
3:14 AM 35.6 °F 28.6 °F 33.8 °F 93% 29.73 in 4.0 mi ENE 9.2 mph - N/A   Overcast
3:34 AM 35.6 °F 29.2 °F 33.8 °F 93% 29.74 in 5.0 mi East 8.1 mph - N/A   Overcast
3:54 AM 35.6 °F 29.9 °F 33.8 °F 93% 29.74 in 3.0 mi East 6.9 mph - N/A   Overcast
4:14 AM 35.6 °F 30.7 °F 33.8 °F 93% 29.73 in 1.2 mi East 5.8 mph - N/A   Overcast
4:34 AM 35.6 °F - 33.8 °F 93% 29.72 in 1.0 mi Calm Calm - N/A   Overcast
4:54 AM 35.6 °F 31.7 °F 33.8 °F 93% 29.70 in 1.0 mi ENE 4.6 mph - N/A   Overcast
5:14 AM 35.6 °F 32.8 °F 33.8 °F 93% 29.69 in 1.0 mi East 3.5 mph - N/A   Overcast
5:34 AM 35.6 °F - 33.8 °F 93% 29.68 in 0.8 mi Calm Calm - N/A   Overcast
5:54 AM 35.6 °F 32.8 °F 33.8 °F 93% 29.66 in 0.5 mi East 3.5 mph - N/A Fog Fog
6:15 AM 35.6 °F 31.7 °F 33.8 °F 93% 29.63 in 0.5 mi ENE 4.6 mph - N/A Fog Fog
6:34 AM 35.6 °F 32.8 °F 33.8 °F 93% 29.63 in 0.2 mi East 3.5 mph - N/A Fog Fog
6:54 AM 35.6 °F 31.7 °F 33.8 °F 93% 29.62 in 0.2 mi ESE 4.6 mph - N/A Fog Fog
7:15 AM 35.6 °F 32.8 °F 33.8 °F 93% 29.61 in 0.2 mi East 3.5 mph - N/A Fog Fog
7:34 AM 35.6 °F 29.9 °F 33.8 °F 93% 29.60 in 0.5 mi ESE 6.9 mph - N/A Fog Fog
7:55 AM 35.6 °F 30.7 °F 33.8 °F 93% 29.59 in 0.5 mi East 5.8 mph - N/A Fog Fog
8:14 AM 37.4 °F 34.9 °F 35.6 °F 93% 29.60 in 0.5 mi NE 3.5 mph - N/A Fog Fog
8:34 AM 37.4 °F 33.8 °F 35.6 °F 93% 29.59 in 0.5 mi ENE 4.6 mph - N/A Rain Light Rain
8:54 AM 37.4 °F 34.9 °F 35.6 °F 93% 29.58 in 0.2 mi ENE 3.5 mph - N/A   Overcast
9:14 AM 37.4 °F - 35.6 °F 93% 29.55 in 0.2 mi Calm Calm - N/A Fog Fog
9:34 AM 37.4 °F 32.1 °F 35.6 °F 93% 29.52 in 0.2 mi East 6.9 mph - N/A   Overcast
9:54 AM 37.4 °F 33.8 °F 35.6 °F 93% 29.53 in 0.2 mi East 4.6 mph - N/A Fog Fog
10:14 AM 37.4 °F - 35.6 °F 93% 29.51 in 0.2 mi Calm Calm - N/A Fog Fog
10:34 AM 39.2 °F 35.0 °F 37.4 °F 93% 29.50 in 0.2 mi North 5.8 mph - N/A Fog Fog
10:54 AM 39.2 °F 34.2 °F 37.4 °F 93% 29.47 in 0.2 mi ENE 6.9 mph - N/A Fog Fog
11:14 AM 39.2 °F - 37.4 °F 93% 29.47 in 0.2 mi Calm Calm - N/A   Overcast
11:34 AM 39.2 °F - 37.4 °F 93% 29.45 in 0.2 mi Calm Calm - N/A Rain Heavy Rain
11:54 AM 39.2 °F - 37.4 °F 93% 29.45 in 1.0 mi Calm Calm - 0.02 in Rain Heavy Rain
12:14 PM 42.8 °F - 39.2 °F 87% 29.45 in 2.5 mi Calm Calm - 0.04 in Rain Heavy Rain
12:34 PM 42.8 °F - 39.2 °F 87% 29.44 in 4.0 mi Calm Calm - 0.05 in   Overcast
12:54 PM 42.8 °F - 41.0 °F 93% 29.43 in 3.0 mi Calm Calm - 0.05 in   Overcast
1:14 PM 44.6 °F - 42.8 °F 93% 29.42 in 0.2 mi Calm Calm - N/A Fog Fog
1:34 PM 44.6 °F - 42.8 °F 93% 29.42 in 0.2 mi Calm Calm - N/A Fog Fog
1:54 PM 44.6 °F 41.4 °F 42.8 °F 93% 29.43 in 0.5 mi SSW 5.8 mph - 0.01 in Rain Light Rain
2:14 PM 50.0 °F - 46.4 °F 87% 29.43 in 4.0 mi WSW 9.2 mph - N/A   Overcast
2:54 PM 48.2 °F - 46.4 °F 93% 29.45 in 7.0 mi West 15.0 mph 20.7 mph 0.01 in Rain Rain
3:14 PM 46.4 °F 41.1 °F 44.6 °F 93% 29.45 in 7.0 mi WSW 11.5 mph 19.6 mph 0.01 in Rain Light Rain
3:34 PM 48.2 °F - 46.4 °F 93% 29.46 in 10.0 mi WSW 15.0 mph 18.4 mph 0.01 in   Overcast
3:54 PM 48.2 °F - 44.6 °F 87% 29.47 in 10.0 mi WSW 17.3 mph 27.6 mph 0.01 in   Overcast
4:14 PM 48.2 °F - 46.4 °F 93% 29.47 in 10.0 mi WSW 13.8 mph 20.7 mph N/A   Overcast
4:34 PM 48.2 °F - 44.6 °F 87% 29.47 in 10.0 mi SW 16.1 mph 23.0 mph N/A   Overcast
4:54 PM 48.2 °F - 42.8 °F 82% 29.48 in 10.0 mi SW 21.9 mph 32.2 mph N/A   Overcast
5:14 PM 46.4 °F 39.5 °F 41.0 °F 81% 29.50 in 10.0 mi SW 17.3 mph 32.2 mph N/A   Overcast
5:34 PM 46.4 °F 38.7 °F 41.0 °F 81% 29.51 in 10.0 mi SW 20.7 mph 26.5 mph N/A   Overcast
5:54 PM 44.6 °F 36.9 °F 39.2 °F 81% 29.53 in 10.0 mi WSW 18.4 mph 32.2 mph N/A   Overcast
6:14 PM 42.8 °F 34.5 °F 37.4 °F 81% 29.55 in 7.0 mi WSW 18.4 mph 34.5 mph N/A   Overcast
6:34 PM 42.8 °F 32.5 °F 37.4 °F 81% 29.56 in 10.0 mi WSW 28.8 mph 38.0 mph N/A   Overcast
6:54 PM 41.0 °F 31.9 °F 37.4 °F 87% 29.58 in 4.0 mi WSW 19.6 mph 31.1 mph N/A   Overcast
7:14 PM 41.0 °F 31.1 °F 35.6 °F 81% 29.60 in 10.0 mi WSW 23.0 mph 32.2 mph N/A   Overcast
7:34 PM 41.0 °F 31.6 °F 35.6 °F 81% 29.61 in 4.0 mi WSW 20.7 mph 33.4 mph N/A Rain Light Rain
7:54 PM 39.2 °F 29.3 °F 35.6 °F 87% 29.63 in 4.0 mi WSW 20.7 mph 32.2 mph 0.01 in Rain Light Rain
8:14 PM 39.2 °F 32.0 °F 35.6 °F 87% 29.64 in 10.0 mi West 11.5 mph 26.5 mph N/A   Overcast
8:34 PM 39.2 °F 29.3 °F 33.8 °F 81% 29.65 in 10.0 mi WSW 20.7 mph 31.1 mph 0.01 in   Overcast
8:54 PM 39.2 °F 30.2 °F 33.8 °F 81% 29.66 in 10.0 mi WSW 17.3 mph 26.5 mph 0.01 in   Overcast
9:14 PM 39.2 °F 29.0 °F 33.8 °F 81% 29.67 in 10.0 mi WSW 21.9 mph 28.8 mph N/A   Overcast
9:34 PM 39.2 °F 30.2 °F 32.0 °F 75% 29.68 in 10.0 mi West 17.3 mph 29.9 mph N/A   Overcast
9:54 PM 39.2 °F 29.0 °F 33.8 °F 81% 29.69 in 10.0 mi WSW 21.9 mph 28.8 mph N/A   Overcast
10:14 PM 39.2 °F 29.3 °F 33.8 °F 81% 29.70 in 10.0 mi WSW 20.7 mph 27.6 mph N/A   Overcast
10:34 PM 37.4 °F 28.9 °F 33.8 °F 87% 29.70 in 5.0 mi WSW 13.8 mph 21.9 mph N/A Rain Light Rain
10:54 PM 37.4 °F 27.5 °F 33.8 °F 87% 29.71 in 10.0 mi WSW 18.4 mph 28.8 mph N/A   Overcast
11:14 PM 37.4 °F 27.2 °F 32.0 °F 81% 29.72 in 10.0 mi WSW 19.6 mph 26.5 mph N/A   Overcast
11:34 PM 37.4 °F 29.8 °F 33.8 °F 87% 29.73 in 10.0 mi WSW 11.5 mph 19.6 mph N/A   Overcast
11:54 PM 37.4 °F 28.9 °F 32.0 °F 81% 29.74 in 10.0 mi West 13.8 mph 28.8 mph N/A   Overcast